Location: *
(53.9002°N, 27.5624°E)
Time: 02:25:33
(UTC+00:00)

ATLAS 3B R/B - Pass Details

Date: 12 November 2019
Orbit: 1030 x 1165 km, 63.8° (Epoch: 03 December)

Event Time Altitude Azimuth Distance (km) Brightness Sun altitude
Rises 17:47:14 0° 298° (WNW) 3,791 6.6 -30.8°
Reaches altitude 10° 17:50:03 10° 306° (NW) 2,836 5.7 -31.2°
Enters shadow 17:55:53 40° 7° (N) 1,497 3.4 -32.1°
